Location: Central Falls
(41.8900°N, 71.3929°W)
Time: 07:58:10
(UTC+00:00)

Altair - Pass Details

Date: 09 December 2023
Orbit: 1501 x 1682 km, 47.2° (Epoch: 29 February)

Event Time Altitude Azimuth Distance (km) Brightness Sun altitude
Rises 17:33:43 0° 296° (WNW) 4,733 10.0 24.0°
Reaches altitude 10° 17:36:49 10° 294° (WNW) 3,726 9.5 23.8°
Maximum altitude 17:46:07 72° 213° (SSW) 1,579 8.3 23.4°
Drops below altitude 10° 17:55:12 10° 131° (SE) 3,644 9.8 22.8°
Sets 17:58:12 0° 130° (SE) 4,624 10.3 22.7°
